Location: Litvinovka
(48.6667°N, 34.3500°E)
Time: 16:13:56
(UTC+00:00)

Cosmos 1626 - Pass Details

Date: 18 September 2020
Orbit: 490 x 495 km, 82.5° (Epoch: 22 October)

Event Time Altitude Azimuth Distance (km) Brightness Sun altitude
Rises 17:03:50 0° 7° (N) 2,590 5.9 -13.1°
Reaches altitude 10° 17:06:55 10° 35° (NE) 1,699 4.6 -13.5°
Enters shadow 17:08:29 13° 60° (ENE) 1,501 4.2 -13.8°
